Terminal Aerodrome Forecast
Issued by NWS

Home | Current Version | Previous Version | Text Only | Print | Product List | Glossary On
Versions: 1 2 3 4 5 6 7 8 9 10 11 12 13 14 15 16 17 18
030
FTUS43 KIND 302027 AAA
TAFBMG
TAF AMD
KBMG 302027Z 3020/0118 15010KT P6SM OVC006
      TEMPO 3021/0101 4SM -SHRA BR
     FM010100 16010KT 4SM -SHRA VCTS OVC008CB
     FM010400 17007KT P6SM VCSH OVC040
     FM010600 20007KT 4SM BR VCSH BKN015
     FM010900 24006KT 2SM BR BKN008
     FM011200 28005KT 2SM BR VCSH BKN008
     FM011700 25005KT 4SM -SHRA BKN015=

USA.gov is the U.S. government's official web portal to all federal, state and local government web resources and services.